Location: G�los
(43.2833°N, 0.3667°W)
Time: 11:35:34
(UTC+00:00)

Daily predictions for brighter satellites

Satellite Brightness Start Highest point End
(mag) Time Altitude Azimuth Time Altitude Azimuth Time Altitude Azimuth
COSMOS 2406 3.4 19:46:37 10° SSW 19:52:18 81° WNW 19:58:03 10° NNE
BREEZE-M DEB (TANK) 3.2 19:49:53 10° SSW 19:52:42 40° SE 20:00:00 10° ENE
Meteor 2-13 Rocket 4.5 19:47:52 10° S 19:53:55 70° E 19:59:59 10° NNE
Cosmos 2322 Rocket 4.2 19:51:32 10° NNE 19:54:27 14° NE 19:57:21 10° ENE
IRS-1A Rocket 4.4 19:50:00 10° SSE 19:55:24 58° ENE 20:00:47 10° N
CZ-4 R/B 4.3 19:52:55 10° SW 19:55:37 17° W 19:58:21 10° NW
Cosmos 1689 Rocket 2.6 19:54:46 10° N 19:57:30 58° WNW 20:00:12 10° SSW
Cosmos 1634 Rocket 4.4 19:51:20 10° NNW 19:57:34 69° W 20:03:44 10° S
USA 32 4.4 19:53:18 10° N 19:58:32 73° W 20:03:45 10° S
BREEZE-M DEB (TANK) 3.8 19:56:28 10° NW 19:59:15 48° NNE 20:06:22 10° E
MOS 1 4.4 19:54:05 10° SSE 19:59:41 66° ENE 20:05:17 10° N
SL-19 R/B 4.4 19:58:03 10° S 20:01:33 76° WSW 20:05:38 10° NNW
Resurs 01 Rocket 2.4 19:59:19 10° SE 20:03:24 37° ENE 20:07:31 10° N
Cosmos 2151 4.3 20:01:37 10° SE 20:04:55 22° E 20:08:15 10° NE
Cosmos 44 Rocket 4.0 20:00:29 10° SW 20:05:38 66° NW 20:10:53 10° NNE
Cosmos 2098 Rocket 3.2 20:03:31 10° SSE 20:06:13 30° E 20:09:18 10° NNE
ERS-2 2.5 20:03:24 10° NNE 20:06:55 43° E 20:10:23 10° S
Gbstr 26 Del rocket 4.3 20:04:48 10° NW 20:08:04 28° NNE 20:11:29 10° ENE
USA 186 3.7 20:09:33 10° SSW 20:12:14 26° W 20:14:46 10° NW
Cosmos 2180 Rocket 4.5 20:06:37 10° N 20:12:48 77° E 20:18:55 10° SSE
Ariane Rocket 3.0 20:12:39 10° SSE 20:17:43 83° ENE 20:22:48 10° NNW
Cosmos 1437 4.3 20:20:13 10° NNW 20:22:40 29° W 20:25:06 10° SSW
SL-16 R/B 3.5 20:18:49 10° N 20:23:36 27° NE 20:28:03 11° ESE
Centaur D AC-28 4.4 20:21:15 10° SW 20:26:47 32° SSE 20:48:14 10° E
Cosmos 371 Rocket 3.4 20:23:56 10° NNW 20:28:43 61° ENE 20:32:51 14° SSE
ARIANE 5 R/B 4.2 20:26:51 12° ESE 20:29:43 21° ENE 20:33:05 10° NNE
Cosmos 1271 Rocket 4.0 20:31:17 10° NNE 20:34:43 27° ENE 20:36:55 17° ESE
SPOT 1/Viking Rocket 3.9 20:31:18 13° SE 20:35:43 50° ENE 20:40:44 10° N
USA 276 3.6 20:32:51 10° NW 20:35:45 31° NNE 20:38:32 10° E
BREEZE-M DEB (TANK) 2.6 20:34:13 10° WNW 20:37:03 62° NNE 20:43:14 12° ESE
Cosmos 1076 Rocket 3.5 20:32:51 10° S 20:37:12 90° E 20:41:35 10° N
Atlas Centaur 2 3.2 20:36:00 10° SSW 20:38:02 13° S 20:39:03 12° SSE
Cosmos 1697 Rocket 4.0 20:34:50 10° NW 20:40:02 38° WSW 20:45:11 10° S
OBJECT-B 3.6 20:38:13 10° SW 20:40:13 16° W 20:42:15 10° NW
ATLAS 2AS CENTAUR R/B 3.9 20:35:30 10° WSW 20:43:12 53° NW 20:50:45 10° NNE
Cosmos 923 Rocket 4.5 20:41:27 10° S 20:46:23 40° ESE 20:51:22 10° NE
Terra 3.4 20:47:56 15° ESE 20:50:20 21° ENE 20:53:54 10° NNE
ATLAS 3B R/B 2.9 20:43:41 10° NW 20:50:51 86° WSW 20:56:42 18° SSE
SPOT 5 3.8 20:50:48 19° ESE 20:52:54 28° ENE 20:56:37 10° N
Cosmos 2082 Rocket 3.3 20:49:16 10° SW 20:54:41 48° WNW 21:00:11 10° NNE
Cosmos 1092 Rocket 4.0 20:48:55 10° S 20:55:04 65° E 21:01:19 10° NNE
Meteor 2-19 Rocket 4.4 20:49:10 10° S 20:55:11 75° E 21:01:15 10° NNE
USA 267 4.2 20:51:22 10° ENE 20:56:17 22° ESE 20:59:02 17° SSE
Cosmos 1633 3.8 20:53:11 10° SSW 20:56:37 42° WNW 21:00:04 10° N
Cosmos 2278 4.0 20:54:27 10° NNW 21:00:03 63° WSW 21:04:38 16° S
BREEZE-M DEB (TANK) 3.9 20:58:41 10° W 21:01:14 27° NNW 21:02:56 10° NE
ERS-1 Rocket 3.6 21:00:35 22° ESE 21:03:15 39° ENE 21:07:55 10° N
Cosmos 332 Rocket 3.8 21:01:09 10° NNW 21:06:04 82° ENE 21:08:58 25° SSE
Cosmos 158 Rocket 4.0 21:01:06 10° SSW 21:06:14 82° WNW 21:11:33 10° NNE
Cosmos 1606 4.5 21:03:36 10° NNW 21:06:54 29° W 21:10:12 10° SSW
Cosmos 2360 Rocket 3.5 21:02:16 10° N 21:06:59 27° NE 21:10:08 17° E
Cosmos 2026 Rocket 4.0 21:02:18 13° S 21:08:02 66° E 21:14:16 10° NNE
GP-B 3.1 21:09:31 10° N 21:13:58 66° E 21:16:14 28° SSE
ISS -3.8 21:11:42 10° WNW 21:15:04 75° SW 21:15:56 46° SE
Cosmos 2333 Rocket 4.1 21:13:29 10° N 21:17:13 18° NE 21:20:38 11° E
Spot 2 Rocket 3.5 21:14:48 26° SSE 21:17:45 77° ENE 21:22:53 10° N
SPOT 3 Rocket 4.2 21:14:07 13° S 21:18:34 52° W 21:23:41 10° NNW
Meteor 1-26 Rocket 4.3 21:14:20 10° N 21:20:20 85° E 21:23:54 25° SSE
Cosmos 2112 Rocket 4.2 21:17:49 23° S 21:20:59 52° ESE 21:26:06 10° NNE
Cosmos 1680 Rocket 3.5 21:17:27 17° S 21:21:27 62° ESE 21:26:39 10° NNE
Cosmos 1812 3.6 21:18:59 10° N 21:22:30 33° ENE 21:23:03 31° E
Cosmos 1627 Rocket 4.5 21:17:39 12° S 21:23:42 89° ESE 21:30:02 10° N
CZ-2C R/B 4.0 21:21:26 10° N 21:25:55 65° WNW 21:30:18 10° SSW
Okean 3 Rocket 3.7 21:24:58 35° SSE 21:26:41 59° E 21:31:07 10° NNE
Cosmos 1980 Rocket 3.7 21:23:28 10° NW 21:28:16 30° WSW 21:32:51 11° SSW
USA 245 4.1 21:25:06 22° S 21:28:24 65° WSW 21:32:44 10° NNW
Cosmos 1933 4.4 21:34:28 10° NNW 21:38:17 41° W 21:40:21 23° SSW
Cosmos 2322 Rocket 2.2 21:33:53 10° NNW 21:39:32 74° ENE 21:41:46 38° SE
Resurs 01 Rocket 3.8 21:36:36 10° SW 21:40:00 21° W 21:43:26 10° NW
Cosmos 304 Rocket 4.4 21:35:35 10° NNW 21:40:13 50° WSW 21:42:24 28° SSW
Cosmos 1408 Rocket 4.0 21:40:12 41° ESE 21:40:35 42° E 21:44:41 10° NNE
Meteor 2-14 Rocket 4.4 21:43:59 31° S 21:47:06 73° E 21:53:14 10° NNE
CARTOSAT-1 4.2 21:46:36 30° SSW 21:48:22 49° W 21:52:34 10° NNW
Cosmos 2084 3.1 21:48:52 43° SSW 21:50:08 80° SE 21:54:18 10° NE
Cosmos 1553 Rocket 3.8 21:46:58 10° N 21:53:04 83° E 21:55:36 38° SSE
Cosmos 2266 Rocket 4.3 21:53:29 38° SE 21:55:08 46° E 22:01:01 10° NNE
Gbstr 26 Del rocket 2.6 21:51:20 10° WNW 21:55:08 79° SW 21:55:26 73° SSE
Cosmos 1862 3.1 21:57:03 73° SSE 21:57:21 80° E 22:01:20 10° N
Cosmos 2219 Rocket 3.5 21:56:09 10° N 22:00:56 28° NE 22:02:58 23° E
Cosmos 1624 Rocket 3.9 21:56:26 10° NNW 22:01:40 79° ENE 22:02:57 52° SE
NOSS 2-1 (E) 3.7 22:05:22 42° NNE 22:05:22 42° NNE 22:07:44 10° NE
Cosmos 1782 4.1 22:00:48 10° NNW 22:04:29 35° W 22:05:38 29° SW
ARIANE 5 R/B 3.6 22:04:24 30° SW 22:05:55 40° W 22:10:08 10° NNW
Cosmos 2228 Rocket 4.3 22:02:16 10° NNE 22:06:04 28° ENE 22:06:04 28° ENE
Cosmos 1515 Rocket 3.5 22:01:57 10° N 22:06:22 70° E 22:06:43 66° ESE
H-2A R/B 3.4 22:03:04 10° NNE 22:07:14 67° E 22:07:14 67° E
SL-16 R/B 2.7 22:02:30 10° NW 22:07:59 51° WSW 22:09:55 36° SSW
COSMOS 2455 3.3 22:09:10 40° ESE 22:09:14 40° ESE 22:14:49 10° NE
NOSS 3-1 (C) 4.5 22:02:39 10° NNW 22:09:57 54° NE 22:14:30 28° ESE
USA 276 3.8 22:08:58 10° WNW 22:10:46 30° W 22:10:46 30° W
Cosmos 2237 4.2 22:06:31 10° NNW 22:12:15 82° WSW 22:13:45 51° SSE
Cosmos 1420 Rocket 4.1 22:07:23 10° NNW 22:12:42 66° ENE 22:13:43 53° ESE
Cosmos 1655 Rocket 4.0 22:12:44 44° S 22:14:54 75° E 22:21:18 10° N
COSMOS 2428 4.0 22:10:42 10° N 22:15:43 30° NE 22:17:35 25° E
Meteor 2-6 Rocket 4.2 22:12:02 10° NNW 22:17:25 70° W 22:18:52 48° SSW
Cosmos 1151 Rocket 4.3 22:15:24 10° NNW 22:19:21 34° W 22:20:31 29° WSW
S3M 4.0 22:16:58 10° N 22:23:23 86° W 22:25:25 47° S
Cosmos 1328 Rocket 4.5 22:19:40 10° NNW 22:23:51 41° W 22:24:43 37° WSW
ATLAS 5 CENTAUR R/B 3.7 22:22:40 10° NNW 22:27:24 29° NE 22:30:39 19° E
Terra 2.5 22:26:50 40° SW 22:27:46 45° W 22:32:21 10° NNW
SPOT 5 4.1 22:30:02 25° WSW 22:30:57 27° W 22:34:41 10° NW
Cosmos 1452 Rocket 3.9 22:27:04 10° N 22:32:11 49° ENE 22:32:49 47° E
ALOS 2 4.2 22:33:57 23° ENE 22:33:57 23° ENE 22:37:26 10° NNE
SL-27 R/B 3.9 22:39:50 34° WNW 22:39:53 34° WNW 22:43:13 10° N
USA 267 3.1 22:33:19 10° NE 22:39:54 83° SE 22:46:07 12° SW
Cosmos 2056 Rocket 4.1 22:36:37 10° NNW 22:41:44 47° WSW 22:42:28 44° SW
Meteor 1-27 Rocket 3.6 22:37:44 10° N 22:43:25 89° ENE 22:44:14 67° SSE
Cosmos 1805 Rocket 3.9 22:49:13 59° NE 22:49:13 59° NE 22:52:58 10° NNE
Cosmos 2360 Rocket 2.5 22:45:49 10° NW 22:51:15 51° WSW 22:51:53 48° SW
IRIDIUM 104 4.1 22:46:46 10° N 22:52:01 89° W 22:52:18 81° S
Meteor 1-20 Rocket 4.2 22:54:51 63° ESE 22:54:59 63° E 23:00:36 10° NNE
Cosmos 1500 Rocket 4.2 22:59:40 48° W 22:59:43 48° WNW 23:04:01 10° N
IRIDIUM 114 4.3 22:55:55 10° N 23:01:09 74° W 23:01:25 72° WSW
Cosmos 2333 Rocket 2.0 22:56:35 10° NNW 23:02:16 86° WSW 23:02:38 79° S
Meteor 1-22 4.4 23:03:01 81° SE 23:03:10 83° E 23:08:42 10° NNE
Cosmos 1244 Rocket 4.5 23:03:47 58° ESE 23:04:16 60° E 23:10:21 10° NNE
Cosmos 972 Rocket 4.2 23:07:27 62° WSW 23:08:03 68° WNW 23:13:06 10° NNE
COBE Rocket 3.9 23:09:07 66° WNW 23:09:07 66° WNW 23:13:24 10° NNW
Cosmos 2322 3.6 23:06:45 10° NNW 23:12:30 76° WSW 23:12:44 74° SW
USA 234 3.5 23:10:02 35° ESE 23:12:54 65° NE 23:19:24 10° NW
NOSS 0 Rocket 4.4 23:08:37 10° NNW 23:14:41 51° ENE 23:16:01 43° E
Cosmos 2297 Rocket 3.6 23:17:11 26° E 23:17:11 26° E 23:20:46 10° NE
Cosmos 468 4.4 23:16:08 82° WNW 23:16:08 82° WNW 23:21:22 10° NNE
Lacrosse 5 3.8 23:21:59 18° ENE 23:21:59 18° ENE 23:23:31 10° ENE
Cosmos 2237 Rocket 3.2 23:17:35 10° N 23:22:49 37° ENE 23:24:02 33° E
Cosmos 2322 Rocket 4.2 23:19:35 10° WNW 23:22:52 16° W 23:23:35 16° WSW
Meteor 1-18 Rocket 4.3 23:20:50 10° N 23:26:40 66° ENE 23:26:57 65° E
Cosmos 2227 Rocket 3.7 23:28:53 24° E 23:28:53 24° E 23:32:21 10° NE
Sich 1 3.8 23:28:46 49° NW 23:28:46 49° NW 23:32:21 10° N
Meteor 1-25 Rocket 4.2 23:30:16 68° WSW 23:30:36 70° WNW 23:36:11 10° N
Cosmos 1633 Rocket 3.9 23:33:06 47° NNE 23:33:06 47° NNE 23:36:18 10° NNE
Cosmos 2285 Rocket 4.0 23:25:52 10° NNW 23:32:05 63° WSW 23:32:33 61° SW
Cosmos 494 Rocket 4.0 23:33:16 72° NW 23:33:16 72° NW 23:38:13 10° NNE
Cosmos 1666 Rocket 4.2 23:37:07 53° N 23:37:07 53° N 23:40:35 10° N
Cosmos 2219 Rocket 2.7 23:39:45 10° NW 23:44:40 46° W 23:44:40 46° W
SL-08 R/B 4.3 23:45:17 78° S 23:45:44 89° WSW 23:51:57 10° N
Meteor 1-19 Rocket 4.2 23:44:06 10° NNW 23:49:32 68° W 23:49:32 68° W
SL-16 R/B 4.1 23:45:25 10° N 23:49:54 23° NE 23:52:42 16° E
